Theta_e
307 297 294 296 300 302 305 305 304 305 305 303 302 301 301 301 302 304 301 301 302 299 298 300 301 301 302 305 307 309 306 305 304 304 305 305 305 306 307 309 312 314 317 323 325 327 329 330 331 331 332 332 332 332 332 332 332 333 332 332 331 332 332 332 331 330 329 327 328 328 328 328 329 329 330 329 330 331 331 333 333 333 333 334 333 332
306 297 296 301 304 306 306 306 305 305 305 303 302 301 300 302 300 304 302 301 301 299 300 301 300 301 302 304 305 307 306 303 304 304 304 305 306 307 307 307 309 311 316 321 323 325 328 329 330 331 332 329 330 331 332 331 332 332 333 332 332 332 331 331 331 331 330 329 329 328 328 329 329 329 328 328 329 330 331 332 334 334 334 334 334 332
296 295 301 305 307 308 307 305 305 304 303 304 302 301 300 301 304 302 302 302 301 300 300 304 302 302 304 305 306 306 305 306 306 306 306 305 306 306 307 308 309 311 313 317 320 324 325 328 330 330 331 331 331 331 331 332 332 332 332 332 332 332 331 331 332 332 331 332 331 331 331 330 330 332 332 331 330 331 330 332 333 334 334 334 334 333
292 297 304 307 308 306 305 305 305 304 303 302 302 300 299 303 301 298 299 302 300 302 301 300 298 300 303 305 306 309 309 307 308 307 307 307 306 306 307 308 309 309 311 312 314 317 321 325 327 329 329 330 330 330 330 330 330 331 331 332 332 332 332 332 331 330 333 333 333 333 333 333 332 331 332 333 332 331 330 330 332 333 334 334 334 334
299 304 307 308 307 306 303 304 303 301 299 303 303 301 301 302 303 302 298 299 298 300 299 299 299 300 303 302 304 308 310 309 307 307 306 307 308 308 310 310 310 308 309 311 311 312 315 319 323 326 327 329 329 329 329 330 330 330 331 332 332 332 332 332 331 331 332 333 332 333 333 334 333 333 332 332 330 330 330 330 331 331 333 334 334 334
301 306 309 305 305 304 303 302 303 302 299 301 304 303 303 304 303 301 299 298 298 298 298 299 293 295 303 304 304 307 308 307 308 305 304 305 306 306 306 307 309 312 312 311 311 311 312 317 321 324 326 327 328 328 329 330 330 330 331 331 332 332 333 332 333 332 331 331 330 330 329 327 328 327 328 327 328 329 329 329 331 332 333 333 333 334
302 306 308 303 303 302 303 302 304 304 300 299 300 305 305 304 304 303 299 300 296 294 296 297 292 291 301 301 304 306 307 307 308 306 306 306 306 306 306 307 307 309 310 311 311 312 312 314 318 321 324 326 326 328 330 331 330 331 331 332 332 332 332 334 333 333 331 330 330 330 329 329 328 327 328 331 331 331 332 332 332 332 333 333 332 332
300 303 305 304 302 302 301 299 304 304 301 298 306 305 305 303 302 302 301 301 299 302 298 295 296 290 291 298 304 305 303 304 306 306 305 307 308 306 306 307 307 308 309 311 311 310 311 312 314 316 320 324 326 328 329 330 330 331 331 332 332 332 332 333 334 333 332 330 330 330 329 329 329 328 329 331 331 332 331 330 331 331 332 333 333 332
301 301 302 301 302 301 299 302 305 306 302 301 303 305 303 303 304 303 301 300 300 294 291 295 297 290 290 297 302 303 300 302 302 304 306 306 308 309 307 307 308 308 310 311 313 312 311 311 312 313 315 321 324 326 327 328 330 331 332 331 332 332 332 332 334 333 332 330 330 329 329 328 329 330 330 331 331 331 331 329 330 331 331 332 332 332
301 304 303 304 302 299 304 305 305 305 301 298 304 306 304 303 302 301 300 298 296 291 288 295 296 288 290 298 300 301 299 300 302 304 305 307 307 307 308 307 307 309 311 311 311 313 314 313 312 313 313 316 320 325 328 329 330 330 331 331 330 331 332 332 333 332 332 331 330 330 329 328 328 328 329 330 329 329 329 329 329 329 330 331 331 331
297 299 304 305 302 304 305 305 307 305 303 302 302 298 297 298 297 297 298 294 292 287 289 295 297 293 287 296 298 299 298 300 302 304 306 308 308 308 308 308 308 308 309 313 312 311 313 314 313 312 311 312 315 321 324 326 327 329 329 330 329 330 331 332 331 332 331 332 331 329 329 329 328 329 328 327 327 328 328 327 327 328 329 330 330 330
297 299 300 300 298 306 302 298 298 300 299 301 298 295 295 293 295 293 291 292 286 285 292 296 296 295 285 292 299 303 306 303 303 303 305 306 308 308 308 308 309 309 309 311 312 311 311 311 311 311 310 310 311 316 318 320 323 325 327 328 327 328 329 330 331 331 331 330 331 330 330 329 329 329 328 327 326 326 327 327 327 328 328 328 330 330
293 295 297 297 298 303 301 298 296 298 299 300 299 297 291 287 288 285 287 282 284 285 287 289 295 290 289 295 300 302 303 302 303 305 305 306 307 309 309 308 309 311 310 311 314 312 311 309 308 308 308 308 309 310 311 313 317 319 322 324 324 326 328 329 330 330 330 330 330 330 329 329 329 329 329 328 327 328 327 327 327 327 327 327 327 328
289 295 293 295 298 300 304 297 291 292 295 298 296 294 290 285 283 281 284 286 287 291 290 290 292 287 293 296 301 301 304 306 304 305 305 305 305 306 308 310 309 312 310 309 309 310 310 309 309 308 307 307 308 308 309 310 312 315 317 320 321 322 325 327 328 329 329 329 330 330 330 329 329 328 329 329 328 328 328 328 328 328 327 327 327 328
283 284 289 293 292 299 302 302 298 296 296 297 302 297 292 289 285 282 285 282 284 288 287 292 288 287 289 294 298 301 304 305 305 303 305 305 306 306 305 305 304 304 304 307 307 307 307 309 310 310 310 309 309 309 309 309 309 311 311 314 316 318 320 323 325 327 327 328 329 329 329 329 328 327 328 328 329 328 328 328 328 328 328 327 328 328
288 288 292 297 296 300 298 305 302 298 295 298 299 301 294 290 296 288 289 289 288 286 284 285 287 294 295 302 302 302 301 301 302 302 302 302 302 304 303 302 302 303 304 306 306 308 309 311 310 310 310 310 310 309 309 309 309 310 310 312 313 314 317 319 322 324 326 327 328 328 327 327 327 326 327 327 327 328 329 328 327 327 327 327 328 329
291 287 289 294 294 297 300 301 299 302 288 292 295 290 294 298 297 291 286 287 287 287 285 290 288 292 298 299 302 302 301 301 301 301 300 301 302 304 304 304 304 305 306 307 310 311 311 310 309 309 309 309 309 309 309 309 309 308 309 310 311 312 314 317 320 323 324 325 326 327 327 327 326 326 326 325 326 326 327 328 328 327 327 327 328 328
291 285 289 292 289 294 291 296 301 303 302 296 289 294 299 301 299 292 286 286 285 284 286 291 287 290 291 288 302 301 300 301 300 300 300 301 302 302 305 306 306 306 308 309 310 311 310 309 308 309 309 309 310 310 310 310 310 309 309 309 310 311 312 315 317 320 322 323 323 324 325 326 326 326 326 326 326 327 327 327 327 328 327 326 327 328
295 284 287 290 293 294 296 299 296 296 298 296 294 302 293 286 286 290 289 283 282 282 285 289 291 290 292 293 296 297 299 300 301 302 301 300 300 302 304 305 305 307 309 308 307 306 306 306 306 306 307 308 308 308 309 310 310 310 309 309 310 310 312 314 316 318 320 322 323 324 324 325 325 325 326 326 327 327 326 327 327 327 328 328 327 327
298 287 285 290 291 292 294 295 286 289 295 297 300 297 301 297 292 289 289 289 289 284 284 285 288 286 295 295 298 299 299 300 301 301 301 301 301 301 303 304 306 309 308 307 307 307 307 307 306 305 306 307 308 308 308 308 309 309 309 308 308 310 311 313 315 317 319 321 322 322 323 324 324 325 325 326 326 326 326 326 327 327 327 327 326 326
293 296 283 287 291 292 285 290 289 291 288 289 293 292 295 295 296 296 296 290 288 285 286 285 285 289 297 300 299 300 301 301 301 302 303 303 303 303 304 307 310 309 309 307 307 306 307 307 306 306 305 305 305 304 304 307 309 310 310 309 309 308 309 311 314 316 318 319 320 321 322 322 323 324 324 325 326 325 326 326 326 327 327 326 325 325
289 291 284 285 285 285 288 293 294 295 294 292 293 291 293 291 288 286 285 296 290 287 284 285 284 291 297 297 298 299 301 301 303 303 304 304 303 303 305 309 307 307 305 305 304 304 306 307 307 306 305 305 305 306 306 307 307 307 308 310 310 309 309 310 311 312 314 316 318 319 320 321 322 323 323 324 325 325 325 326 326 326 325 324 324 324
294 290 286 283 285 287 290 290 291 289 294 297 296 294 297 295 294 289 284 287 288 289 288 285 283 287 298 298 298 299 298 298 298 300 300 301 302 303 305 305 304 304 304 304 303 304 305 307 306 305 304 306 307 308 307 306 306 308 308 308 308 309 309 310 310 312 314 315 316 317 319 319 320 321 322 323 324 324 324 325 325 324 323 322 321 321
293 287 285 285 289 290 290 289 291 292 296 295 295 297 297 293 294 292 291 292 287 287 285 286 283 288 297 297 296 297 298 297 297 298 299 300 301 303 304 304 303 305 306 305 305 304 304 306 305 303 305 306 306 306 306 307 306 306 306 307 307 307 309 310 309 310 311 312 314 315 316 316 318 320 321 321 322 320 320 318 319 319 319 318 316 316
289 288 286 281 281 284 286 289 289 292 293 292 292 294 297 298 297 293 289 290 287 288 288 287 282 288 297 297 297 296 297 296 297 297 297 299 302 303 303 304 304 305 306 305 305 305 305 306 306 306 307 309 309 308 308 306 306 306 306 305 305 306 307 307 307 307 308 309 311 312 313 314 315 314 314 315 315 315 314 314 314 312 314 313 312 313
291 289 287 280 277 275 276 277 280 283 286 290 294 294 296 296 295 289 286 288 284 288 289 287 287 294 296 297 297 296 296 296 297 298 298 300 301 301 306 305 304 306 305 304 304 305 305 306 309 309 308 309 308 307 307 305 305 305 305 305 305 304 304 303 303 304 305 306 306 308 309 310 311 310 310 311 311 310 310 311 310 309 309 310 311 308
288 291 290 288 286 283 286 289 293 293 290 287 290 293 293 296 296 294 292 288 285 289 287 290 291 293 294 296 295 297 296 297 297 297 297 298 299 301 302 303 304 303 303 302 304 307 305 303 303 306 307 309 309 307 306 305 304 303 303 303 303 303 303 302 301 301 302 303 304 305 306 307 308 308 307 307 308 306 305 305 304 306 306 304 307 305
287 286 289 291 291 292 294 292 294 293 289 290 290 291 293 293 294 291 289 287 293 290 286 292 294 291 293 296 297 297 297 298 299 299 299 300 303 303 303 302 297 299 301 303 303 303 305 305 308 310 309 308 307 306 305 304 305 304 303 302 302 302 302 302 302 301 301 302 303 304 305 305 306 306 306 306 304 303 302 302 301 301 300 300 303 302
288 286 289 290 291 293 294 294 294 292 292 291 290 291 290 292 291 288 289 293 295 288 287 293 295 292 294 297 298 299 300 299 299 299 299 299 299 299 299 299 301 302 302 304 304 306 307 309 309 309 309 308 307 305 304 303 302 301 301 301 302 301 301 302 301 301 302 302 302 303 304 304 302 302 302 300 301 301 300 299 297 295 295 296 297 298
293 287 289 290 289 291 291 293 294 292 291 291 290 290 291 291 291 291 292 293 294 292 294 295 295 294 296 298 299 301 303 300 297 298 298 298 299 300 300 301 301 302 302 303 304 306 308 308 309 310 310 309 307 307 305 304 303 301 300 300 301 300 301 301 301 301 302 302 302 303 302 300 298 300 300 301 300 298 295 294 293 294 294 294 293 293
293 287 291 289 287 287 289 292 294 293 290 288 291 291 291 291 292 292 292 293 294 293 294 294 293 293 298 301 301 302 301 299 299 298 299 300 299 300 301 301 303 302 303 304 305 308 308 309 309 307 307 307 308 308 306 305 305 303 301 301 302 301 299 300 302 302 302 302 301 299 297 297 297 295 296 297 295 294 294 294 293 293 293 292 292 293
292 288 291 288 285 285 286 289 291 290 289 287 288 289 289 289 288 290 289 293 292 290 292 292 290 291 297 301 301 302 301 300 300 301 301 302 301 300 301 302 304 304 304 305 306 307 307 307 308 307 306 306 307 307 306 304 304 303 302 302 301 301 299 299 301 302 302 301 297 296 297 295 295 294 293 293 293 293 292 292 292 292 292 292 291 292
290 289 287 286 284 285 286 288 287 286 286 284 285 288 290 291 292 293 294 295 294 295 291 288 290 296 299 300 299 299 299 300 300 300 302 302 304 301 301 302 304 304 305 305 305 306 306 305 305 309 309 308 307 307 306 306 304 303 303 302 302 300 296 298 300 302 301 296 295 294 293 293 294 293 293 293 292 293 292 292 291 291 291 292 291 291
291 290 288 290 284 285 284 285 287 285 279 280 291 295 294 291 291 290 290 292 295 296 294 296 297 299 299 299 298 298 298 299 300 302 303 304 303 304 305 304 304 305 305 304 304 306 306 306 306 307 306 307 307 307 306 305 305 304 304 303 300 297 298 298 299 301 296 294 294 294 294 293 293 293 292 292 292 291 291 292 291 290 290 291 291 291
289 289 288 289 287 281 283 285 282 277 280 292 298 297 297 296 295 293 294 295 295 296 297 296 297 298 300 299 299 300 301 301 302 302 303 304 305 304 303 304 304 303 304 303 304 304 305 305 305 305 303 302 303 303 301 301 302 302 300 299 297 297 298 299 298 297 295 294 294 293 292 293 293 293 292 291 291 291 291 291 291 290 290 291 291 292
288 288 289 287 286 284 282 282 276 278 288 293 295 297 298 297 296 295 293 295 296 296 297 296 297 299 300 300 300 301 301 301 302 302 303 304 305 305 304 303 305 304 303 303 303 304 303 303 303 303 304 303 301 301 300 300 300 299 298 297 297 295 295 296 296 296 294 294 293 292 292 293 292 291 292 291 290 290 291 291 289 289 290 291 292 291
293 290 289 285 285 280 281 282 283 290 288 291 292 292 294 292 292 291 287 292 297 298 298 297 297 299 300 301 301 301 301 299 300 300 303 303 304 305 304 304 304 304 305 304 304 304 304 304 303 303 303 301 301 299 299 299 298 298 296 294 295 294 294 294 295 294 294 294 293 292 292 292 292 291 291 290 290 289 290 289 289 289 290 290 290 290
295 288 289 285 282 286 281 281 283 283 280 287 293 296 299 302 299 298 294 291 299 299 300 298 297 298 299 300 300 298 299 296 294 296 301 302 304 304 304 305 304 305 305 305 303 302 302 302 301 301 300 298 298 299 299 298 297 297 295 293 293 293 293 293 294 294 294 293 292 292 292 292 291 290 289 289 289 289 289 289 290 289 290 290 290 290
292 293 290 287 284 283 282 280 281 280 284 292 295 296 299 300 300 300 291 287 296 299 300 299 298 299 299 299 297 297 294 291 292 296 301 302 302 303 302 303 303 303 302 302 301 300 299 299 298 297 297 297 296 297 297 296 296 296 294 292 292 293 293 293 294 294 293 293 292 292 291 291 291 290 289 289 289 289 288 288 288 289 289 290 289 289
287 287 287 284 281 283 283 281 281 285 286 293 296 296 299 300 300 294 283 285 296 299 300 300 299 299 300 300 298 296 294 291 293 297 302 303 302 302 301 301 301 300 300 300 300 300 299 298 296 294 295 295 296 296 295 295 295 294 294 292 293 292 292 293 294 295 295 294 293 292 292 291 289 289 289 289 288 288 288 289 289 288 289 289 289 289
284 285 286 283 284 284 284 283 286 287 293 294 294 297 299 300 295 285 281 291 298 300 300 301 300 300 300 299 297 294 297 299 300 301 301 301 301 301 301 301 301 300 299 298 298 296 298 296 296 295 295 296 295 294 294 294 294 293 293 293 292 291 293 294 294 293 293 293 292 291 290 290 289 288 288 289 289 288 288 289 288 288 288 288 288 288
285 286 285 286 284 283 284 283 284 288 295 295 293 299 300 295 285 285 295 300 300 299 299 301 300 301 301 299 298 298 300 301 301 298 298 299 301 301 299 296 295 295 295 295 294 294 296 294 294 295 295 294 293 293 293 293 292 293 293 292 291 293 294 294 293 293 292 291 291 289 288 288 288 288 288 287 288 288 288 288 287 287 288 288 288 287
285 284 282 283 286 286 286 283 283 280 291 298 297 296 298 291 292 301 297 297 301 301 300 299 301 301 301 300 300 300 300 300 300 298 296 297 298 298 296 294 294 294 293 292 292 293 294 293 293 293 292 291 292 291 292 291 290 291 291 291 292 293 294 293 292 291 290 289 288 287 287 287 287 287 287 287 287 287 287 287 287 287 287 287 287 286
292 285 285 286 289 282 283 281 283 291 295 299 297 292 295 299 298 301 307 298 297 299 299 299 299 301 301 301 300 299 299 299 300 297 295 295 294 295 294 294 294 294 293 292 292 291 293 293 293 292 290 290 290 290 291 290 289 289 289 290 293 292 291 291 290 289 288 287 287 286 286 286 286 286 287 287 287 287 286 286 286 287 287 287 287 287
292 289 291 286 291 288 286 290 294 293 298 300 300 301 301 302 303 298 306 303 297 296 299 299 300 300 301 301 300 300 299 299 299 299 297 296 296 294 293 292 293 293 292 292 292 291 291 293 291 290 288 289 288 290 288 289 288 287 288 289 289 288 289 288 287 287 287 286 286 286 285 286 286 286 286 286 287 287 287 286 286 287 287 287 287 287
295 295 293 293 291 295 296 297 299 294 295 298 300 301 301 302 300 295 297 300 299 300 297 299 299 299 299 300 299 299 299 299 299 298 297 297 297 295 293 293 293 293 292 291 290 289 290 290 288 288 287 287 287 288 287 288 288 287 288 287 287 287 287 286 286 286 286 285 285 285 285 285 285 285 286 286 287 287 287 287 286 287 287 287 287 287
293 295 291 290 293 290 287 296 295 297 296 297 299 297 296 301 301 296 297 299 300 299 296 297 300 299 299 299 299 299 299 299 298 298 297 297 296 295 293 293 292 292 291 290 289 288 288 287 287 286 286 285 286 286 286 286 286 286 286 285 285 285 285 285 285 284 284 284 283 283 284 285 285 285 285 285 287 287 287 287 287 288 287 287 287 287
288 295 292 291 291 290 291 295 297 299 298 295 296 297 296 297 299 297 297 298 297 296 296 295 297 296 297 296 298 298 298 298 297 297 296 296 295 294 293 293 292 291 291 290 288 287 287 287 286 285 285 285 285 286 286 285 283 283 283 284 284 284 284 284 284 284 283 282 283 283 284 285 282 284 285 285 286 287 287 287 287 287 287 287 287 287
292 294 288 292 290 292 295 297 299 294 292 294 295 297 298 299 299 296 294 295 294 291 290 290 291 295 296 296 297 297 294 295 296 296 295 295 294 294 293 293 292 291 290 288 286 286 287 287 286 286 286 285 285 285 284 281 280 281 282 282 282 283 284 283 282 282 281 282 283 283 283 285 283 285 285 284 285 286 287 287 287 287 287 287 288 288
292 288 292 292 288 289 290 293 296 291 290 294 295 297 298 296 298 297 296 294 292 289 290 291 290 290 292 294 295 295 295 295 294 294 294 294 294 294 294 293 292 290 289 287 286 286 286 286 286 285 284 284 284 283 280 278 278 279 281 280 281 283 283 282 281 280 281 282 283 282 283 284 284 284 284 285 285 284 283 282 283 284 286 287 285 284
292 292 292 289 289 289 295 297 299 299 299 298 298 298 298 297 296 295 296 295 292 292 292 291 290 289 289 290 292 294 294 295 294 293 293 293 293 294 294 292 290 289 287 285 285 285 285 285 284 284 282 282 282 281 278 277 277 277 278 279 279 281 281 281 282 282 281 281 283 283 283 284 283 283 284 284 285 284 284 284 283 283 282 282 283 283
Wind_Speed
5 9 12 15 15 17 17 18 15 12 8 9 13 13 12 8 8 9 5 5 6 6 12 14 16 16 14 15 14 15 11 11 11 12 10 9 8 8 8 9 10 11 12 8 10 12 14 14 13 12 12 12 14 14 14 14 14 14 13 12 13 12 13 13 12 11 11 11 10 10 11 11 11 10 10 10 9 8 8 8 9 9 8 9 9 8
7 9 15 14 16 20 18 16 14 14 8 10 11 13 11 10 8 8 8 8 5 6 7 11 15 17 16 14 14 12 13 14 15 14 13 12 12 10 10 10 10 10 5 6 9 12 12 12 13 12 11 12 15 14 14 15 15 15 15 14 13 12 13 14 13 11 10 10 10 10 11 10 10 10 10 11 10 9 7 9 9 9 9 10 9 8
8 15 15 18 14 15 14 14 13 14 11 10 10 10 10 10 6 7 5 7 5 5 9 9 12 14 15 15 15 15 16 15 14 15 14 14 13 11 11 12 11 9 9 9 11 11 11 12 13 12 12 12 14 14 16 16 16 16 15 14 13 12 13 13 13 12 12 11 11 11 9 10 9 9 9 9 9 9 10 10 10 10 11 10 10 10
11 14 13 17 16 16 16 16 15 11 8 9 9 9 10 7 9 7 8 8 6 7 3 4 9 11 14 13 15 15 16 16 15 14 15 12 13 14 13 12 11 12 10 11 12 12 12 13 13 13 13 13 12 13 14 15 16 14 14 14 14 14 14 12 13 12 12 12 11 10 9 9 9 8 9 9 10 10 11 12 12 11 11 13 12 12
11 6 17 19 19 19 19 19 17 12 10 11 10 10 8 9 8 7 3 3 3 7 4 8 11 13 14 15 13 14 17 16 15 15 14 12 11 11 9 10 12 13 12 11 12 11 12 13 14 15 14 13 14 14 14 14 14 12 16 16 16 15 14 13 13 14 13 11 11 10 9 8 8 7 8 9 10 11 11 10 11 13 12 13 12 11
12 8 17 20 19 19 19 17 21 16 12 12 14 13 10 7 7 5 6 4 4 6 9 8 8 12 12 18 18 13 12 16 17 18 17 16 15 14 14 14 12 10 11 11 12 13 13 14 13 13 14 14 14 14 14 13 14 14 14 16 16 13 13 13 14 15 13 12 11 11 10 12 12 12 12 15 15 12 12 13 11 12 13 13 12 11
12 12 19 20 22 22 22 17 18 17 12 10 11 14 11 10 8 7 4 1 7 9 3 2 10 7 2 7 7 10 12 15 13 17 19 18 17 15 14 13 13 13 12 11 10 10 11 12 12 13 14 15 15 15 14 13 15 16 14 14 15 14 13 12 13 14 12 13 13 15 15 13 14 14 13 12 12 13 11 11 12 12 13 14 15 15
7 19 21 21 20 17 17 17 18 19 11 9 6 15 9 8 6 5 4 5 8 5 2 7 6 10 12 12 9 7 7 9 13 14 17 18 19 18 15 15 14 13 13 10 12 13 12 12 13 15 16 14 15 13 12 13 14 16 16 15 16 13 12 12 12 15 15 14 15 16 17 14 14 14 12 11 13 11 11 13 13 13 13 14 15 14
21 21 23 23 20 18 19 17 15 18 12 4 6 11 12 12 8 5 4 6 4 5 7 6 6 7 11 8 13 15 17 16 15 16 16 16 17 18 18 16 15 14 13 12 10 12 13 13 13 13 13 13 11 10 13 13 13 13 14 15 14 15 14 13 16 15 17 15 14 14 13 14 13 13 12 10 10 10 11 14 13 13 12 13 14 14
7 20 22 22 19 18 16 16 14 15 13 2 3 5 4 5 3 4 4 4 4 4 13 9 7 7 15 6 7 9 14 16 17 18 18 17 17 18 19 17 15 14 11 12 12 11 11 11 11 11 9 10 11 10 11 11 11 11 12 14 16 16 14 13 16 16 17 17 14 14 14 15 13 11 10 9 11 12 11 13 15 13 12 12 12 14
4 6 3 15 17 15 15 8 8 16 4 7 10 9 7 5 4 3 1 0 2 10 13 6 11 9 12 3 9 10 11 12 12 12 13 15 16 16 17 18 15 15 12 9 10 10 9 8 9 9 11 10 9 8 10 10 10 10 12 14 16 17 14 14 16 17 18 16 15 14 15 16 15 13 11 10 12 11 11 13 14 14 13 11 11 11
6 6 6 1 5 8 14 8 8 4 12 11 6 7 7 4 3 4 1 2 4 12 1 6 13 11 11 2 4 10 10 6 8 12 13 12 14 15 15 16 17 16 14 11 10 9 9 7 7 7 9 9 10 8 9 8 9 10 11 12 15 15 16 15 14 15 16 16 16 15 15 15 14 13 10 13 12 12 12 13 12 12 12 12 11 11
9 9 2 4 7 11 14 12 3 6 7 10 10 10 10 5 4 4 3 6 11 10 2 4 5 7 19 15 10 6 9 7 10 10 10 10 12 12 12 13 12 13 13 12 7 7 7 7 7 7 8 7 9 9 10 10 10 10 11 13 14 15 16 15 14 15 16 15 16 16 15 14 12 13 13 12 11 11 12 12 12 12 12 11 10 10
4 2 0 3 6 7 16 16 8 9 12 14 14 13 12 9 7 7 7 3 5 3 5 4 0 10 13 12 15 19 21 14 9 10 10 9 8 7 2 0 0 3 3 4 3 3 4 5 6 8 8 9 9 10 10 10 10 10 9 12 13 15 13 13 13 14 14 15 15 14 13 13 11 12 13 13 12 12 12 12 12 12 11 11 13 12
9 7 9 11 8 7 16 15 15 6 16 15 10 13 8 5 4 10 9 12 8 4 3 5 4 6 5 1 5 5 10 9 8 6 5 6 5 4 0 1 2 1 1 1 1 3 4 6 7 7 7 7 7 8 9 8 9 8 9 11 13 13 12 13 13 12 14 13 14 14 14 14 13 14 11 11 11 12 12 12 12 10 10 10 11 13
15 4 2 10 4 10 7 11 12 13 7 3 2 4 7 9 3 7 2 5 4 2 4 6 7 7 8 6 6 5 7 8 9 10 9 10 8 5 3 3 4 3 4 4 4 5 6 6 6 5 5 6 6 6 6 7 7 8 9 9 10 11 10 11 12 12 12 13 12 13 14 15 13 10 10 9 9 10 11 11 11 11 12 10 9 9
8 7 1 7 1 10 12 7 11 17 11 9 7 10 5 6 5 4 2 2 3 3 10 5 6 11 10 16 19 16 12 10 9 9 10 12 11 7 5 4 4 3 4 5 5 5 5 5 5 5 5 5 5 5 6 6 6 7 7 7 8 9 9 10 11 11 11 11 12 13 14 14 13 14 13 11 11 12 12 10 10 10 10 9 9 8
12 7 3 6 4 3 4 5 8 9 3 10 7 9 3 3 4 5 9 3 3 9 7 8 12 8 4 9 1 13 16 13 9 10 10 10 9 10 6 4 5 5 6 6 5 4 4 3 4 4 3 3 4 5 5 5 5 5 6 7 8 9 10 10 10 11 11 12 13 13 13 14 14 13 13 12 12 11 10 10 9 8 8 8 7 7
10 7 3 2 4 2 2 4 4 4 4 5 9 8 10 5 7 4 1 11 10 10 7 8 10 9 9 12 1 3 11 14 13 9 7 7 7 9 6 5 6 6 5 4 4 3 3 3 2 2 3 3 2 2 1 2 3 3 4 5 6 8 8 8 8 9 9 11 9 9 11 13 13 12 12 12 13 12 11 11 10 10 9 8 8 8
7 5 5 2 3 2 3 7 10 6 2 3 2 12 10 4 8 8 8 2 3 7 4 5 5 6 8 11 12 11 7 8 10 12 10 7 6 5 6 6 6 6 4 4 2 2 2 2 1 2 2 3 3 3 2 2 2 3 4 4 5 4 5 5 7 7 9 9 9 9 9 10 11 11 11 11 12 13 13 12 11 11 10 10 8 8
5 2 7 6 2 6 8 6 12 14 13 8 11 12 10 5 2 5 8 9 5 5 8 6 7 5 4 2 8 13 15 11 9 10 9 5 5 4 1 1 4 5 4 4 3 2 2 1 2 2 2 2 1 1 1 1 1 1 1 3 3 4 5 6 6 6 7 7 8 9 10 10 10 11 11 13 12 13 14 12 10 9 6 7 8 8
1 6 9 10 7 7 5 1 3 10 12 11 12 12 14 12 7 9 10 9 6 4 5 5 9 4 4 3 2 4 2 4 6 4 2 4 3 0 0 3 4 4 4 4 3 2 1 1 1 2 2 1 1 2 2 2 1 1 2 2 2 3 4 5 6 6 6 7 7 9 9 10 9 10 11 12 12 13 13 11 8 7 6 8 7 8
2 3 11 8 10 10 3 1 2 1 3 7 13 12 12 10 8 7 11 9 4 7 4 1 4 4 3 1 2 2 1 3 3 4 2 3 3 3 4 3 4 3 3 3 2 1 1 1 1 1 1 1 2 2 2 2 2 2 2 2 3 3 4 4 4 5 5 6 7 8 8 8 9 9 10 11 10 10 9 8 7 7 8 7 6 6
3 4 8 8 8 5 3 3 1 2 3 6 6 6 13 16 19 15 7 3 7 4 5 6 8 5 3 1 1 1 1 1 1 1 1 1 2 3 3 3 2 2 3 3 2 1 1 1 1 1 2 4 4 4 4 4 3 3 3 3 3 4 4 3 3 4 4 6 7 7 7 7 7 7 7 8 7 7 6 5 5 4 5 5 4 5
4 3 10 8 6 4 3 4 2 2 2 9 13 14 15 15 15 4 3 1 5 9 9 9 13 11 3 1 1 1 2 2 3 3 2 2 1 1 3 2 1 1 2 3 2 1 1 1 2 2 3 4 4 4 4 4 3 3 4 4 4 4 3 2 2 2 3 4 5 5 6 8 6 5 5 5 4 5 4 4 4 4 5 4 5 5
0 5 12 12 14 12 11 14 15 16 19 15 15 14 14 18 15 9 9 6 8 6 7 9 13 11 3 3 3 3 3 2 4 4 4 4 2 1 2 2 2 2 2 2 1 0 1 1 1 2 3 3 4 4 4 4 4 4 4 5 4 4 4 4 3 3 3 3 4 4 7 7 5 4 4 3 3 4 4 4 4 4 4 5 6 5
1 5 8 7 10 11 8 2 3 6 6 9 13 17 16 15 13 9 4 7 11 6 8 12 17 11 8 8 5 4 3 2 5 4 5 4 4 2 1 0 1 1 1 2 1 1 1 2 4 5 4 4 4 4 3 4 4 5 5 5 5 5 4 4 3 4 4 4 5 5 6 6 5 3 3 3 3 3 3 3 3 4 4 4 5 6
2 2 9 13 12 4 4 7 10 14 13 13 13 14 14 15 12 12 13 16 16 6 11 17 25 19 11 7 8 5 4 3 3 3 3 3 4 3 3 2 2 1 3 2 2 3 4 3 2 2 4 4 4 4 4 4 4 5 5 5 5 5 4 4 4 4 4 5 5 5 5 5 4 3 3 2 2 2 2 2 3 3 3 3 4 4
9 11 13 15 15 5 2 12 15 14 15 14 13 13 15 15 14 13 17 19 8 11 18 20 15 16 20 14 8 6 2 2 4 3 4 4 2 3 1 3 4 4 4 3 5 5 5 5 4 4 4 5 4 6 6 6 5 6 6 5 4 4 5 4 4 4 4 5 5 5 5 3 3 2 3 2 2 3 3 3 3 3 3 3 3 3
4 7 7 14 13 8 2 8 13 13 11 16 19 18 16 17 19 20 22 20 18 19 25 16 8 18 17 14 16 14 2 4 4 2 1 2 4 0 3 4 5 4 5 7 7 7 5 4 5 5 5 5 6 6 6 5 6 6 6 6 6 6 5 5 5 5 5 5 6 4 3 3 2 3 2 4 4 3 3 3 3 4 4 3 4 4
7 7 12 10 9 8 1 2 7 13 14 13 14 15 18 16 17 21 23 24 21 24 25 21 18 18 11 7 12 13 6 5 3 6 8 8 8 6 5 6 6 6 6 7 7 5 5 6 5 5 5 6 6 6 4 4 5 5 6 7 7 7 5 5 5 6 5 6 3 3 3 2 2 2 2 2 3 3 3 4 4 4 4 4 4 4
10 2 7 4 9 9 3 7 5 6 12 12 13 14 18 21 20 22 23 21 17 20 25 22 17 19 14 8 6 8 6 6 10 10 9 7 8 9 8 7 6 7 8 8 7 6 8 8 8 7 7 6 5 5 5 6 7 7 7 7 7 6 5 5 6 6 5 4 4 3 3 2 3 2 2 2 3 3 3 3 3 4 4 4 4 4
14 8 8 9 10 11 6 4 6 8 6 2 12 20 26 29 26 17 16 13 21 25 20 14 21 21 1 8 13 14 15 17 18 14 12 13 10 11 10 9 9 8 8 9 10 11 12 11 9 7 4 4 6 7 8 7 8 8 6 6 6 5 5 5 5 5 4 3 3 3 2 3 3 2 2 2 2 3 3 4 4 4 4 5 3 4
11 11 8 9 9 4 9 7 5 8 14 16 21 22 20 21 21 19 21 24 23 18 17 19 18 9 9 11 13 14 17 18 18 17 15 15 16 13 9 11 10 8 9 12 14 13 10 8 6 5 5 7 7 5 3 4 4 3 4 4 5 6 6 6 5 5 3 4 4 3 3 4 4 4 3 3 4 3 4 4 4 3 3 4 4 4
14 12 6 5 5 4 7 8 8 15 16 18 3 9 17 21 22 25 23 19 21 24 26 23 21 18 13 12 14 16 17 18 16 18 16 17 16 14 16 13 9 11 13 15 16 15 11 9 7 4 6 6 3 4 4 3 4 4 5 5 6 6 6 6 5 5 4 5 4 3 3 3 3 4 4 4 4 3 4 4 5 4 3 3 4 6
13 14 8 6 3 4 6 9 10 14 9 4 2 11 16 18 22 19 20 22 28 26 25 24 25 22 19 16 15 14 15 13 11 15 17 16 14 13 15 15 15 16 18 19 18 14 10 8 9 10 8 4 6 5 5 5 6 6 5 5 6 6 5 6 6 5 5 5 4 4 3 3 3 4 4 5 3 4 4 5 3 4 3 3 3 4
13 10 9 7 3 9 7 11 16 2 2 5 4 8 17 22 22 22 19 22 21 19 21 24 26 25 23 18 12 7 4 3 4 11 14 16 13 14 17 19 22 22 20 15 9 9 9 9 9 8 6 6 6 7 7 6 6 6 6 5 6 6 6 5 6 6 5 5 4 4 3 3 4 5 4 5 5 4 3 4 4 3 3 4 3 4
13 13 7 9 5 2 9 6 5 7 9 12 22 14 4 0 12 15 15 17 7 20 23 23 24 22 19 14 8 8 6 6 10 17 16 17 18 19 21 21 24 19 7 4 7 8 8 6 5 6 8 8 6 5 5 7 6 6 6 5 5 6 6 6 6 5 5 5 5 5 5 5 5 6 4 4 4 4 4 3 3 3 2 4 5 4
2 5 5 8 4 6 6 10 8 10 18 21 10 14 11 8 9 7 3 18 18 20 22 25 25 20 18 16 12 11 7 9 16 19 17 17 21 21 22 23 21 11 8 9 11 10 10 10 9 8 6 7 8 6 6 7 7 7 6 5 6 6 7 8 6 6 5 4 4 5 4 4 5 6 6 5 4 4 5 4 4 3 3 2 3 3
8 6 5 5 2 6 8 10 11 5 14 3 12 15 17 17 14 9 3 16 24 20 22 23 22 19 19 14 16 13 13 13 16 20 24 14 17 19 20 21 17 12 11 9 7 8 8 7 7 6 8 10 9 8 8 7 6 6 5 5 5 7 8 7 5 4 4 5 6 6 6 5 4 5 6 6 5 4 4 4 4 4 3 3 2 3
9 6 8 11 10 8 10 3 5 8 12 3 10 17 20 19 16 11 12 24 7 20 22 21 23 22 19 16 15 13 20 24 27 17 4 12 13 14 16 17 12 8 10 9 10 8 8 9 11 12 12 8 8 8 8 7 8 7 6 6 6 6 5 4 4 5 5 5 5 5 5 4 4 5 4 4 5 5 4 4 4 4 3 4 3 3
12 9 5 8 10 11 10 11 8 11 5 13 9 19 20 15 8 21 24 5 12 12 17 21 26 25 24 26 24 24 24 27 28 3 5 8 15 14 9 4 3 2 1 1 4 9 8 8 7 5 5 5 8 8 8 8 8 7 6 6 6 5 4 5 5 5 5 5 5 3 3 3 3 2 2 3 4 5 3 2 3 3 3 3 3 4
13 10 10 11 5 2 4 7 5 13 10 25 18 18 19 17 19 6 5 3 2 8 11 11 12 17 19 19 22 24 23 22 23 9 5 6 5 8 7 7 8 9 8 6 4 5 6 8 9 8 7 6 6 6 7 7 6 6 6 6 5 6 6 5 6 5 5 4 3 3 3 3 4 3 3 3 3 4 4 3 3 3 2 3 3 4
16 10 8 7 9 10 12 12 12 18 7 23 22 15 16 4 5 3 1 1 2 3 7 6 8 10 15 16 18 19 20 19 17 6 6 4 4 2 5 5 5 4 4 4 5 9 9 8 6 6 6 5 5 5 5 6 7 5 5 3 6 6 6 5 5 4 4 4 4 4 4 4 4 4 4 4 5 4 5 4 4 3 2 2 3 3
16 13 14 13 13 9 12 13 22 5 18 19 18 7 14 10 4 4 1 2 6 5 3 7 9 9 11 16 14 16 17 19 17 12 10 11 10 9 9 10 10 10 9 9 7 8 7 8 10 8 6 4 6 5 3 3 6 7 6 4 6 5 5 5 5 5 5 5 4 4 4 3 3 4 3 3 4 5 5 5 4 4 2 3 3 3
15 20 11 13 14 18 16 18 1 3 4 17 19 13 17 18 6 3 4 5 4 5 9 8 8 8 11 12 14 13 15 15 15 12 11 11 11 9 7 7 6 5 6 7 8 8 5 6 6 7 6 6 4 5 3 3 5 8 5 5 5 5 5 7 7 6 5 5 4 4 4 5 4 3 3 3 2 3 3 5 5 4 4 4 3 3
1 10 5 10 8 13 14 18 21 19 7 8 9 1 5 10 13 5 3 3 5 5 8 7 8 12 13 14 15 15 15 14 12 12 12 11 10 9 10 10 7 8 10 12 10 10 8 8 8 7 7 6 3 4 3 4 4 4 4 5 4 6 7 7 7 7 6 5 5 4 4 5 4 4 3 2 2 2 3 3 3 3 4 5 4 4
9 13 12 12 12 16 18 25 26 19 7 9 11 10 10 10 7 4 3 3 4 2 4 4 1 3 4 7 12 12 13 12 12 10 9 10 11 9 9 10 10 8 5 6 9 7 7 8 8 8 7 6 6 5 5 4 4 4 5 5 6 7 8 8 7 7 6 6 5 4 4 4 6 6 4 4 4 4 3 3 4 3 3 4 4 5
5 15 13 12 13 14 22 10 1 6 12 17 16 13 8 7 9 6 3 6 7 5 2 1 1 0 4 9 8 9 9 8 8 11 10 9 8 8 10 11 12 11 11 9 7 8 9 9 9 7 7 7 7 6 6 5 4 3 5 4 6 8 8 7 6 6 6 5 4 4 4 4 4 3 4 4 3 2 3 4 5 4 2 1 0 1
9 11 9 9 10 12 14 20 18 12 14 18 18 12 3 3 0 6 11 14 10 5 4 5 3 1 1 2 4 6 11 10 8 7 10 10 11 12 10 10 10 11 10 6 6 7 8 8 9 9 8 8 7 7 5 4 3 3 3 3 5 6 8 8 6 6 5 4 4 4 4 4 4 3 3 3 3 3 1 5 4 3 0 2 4 6
16 17 16 14 14 20 29 30 16 14 9 5 12 15 17 15 13 15 17 16 11 9 6 6 6 5 6 7 6 8 11 11 10 7 8 9 9 7 8 12 12 11 11 8 10 8 9 8 9 9 8 7 7 6 4 4 3 3 3 2 2 3 6 6 5 4 4 4 3 4 4 4 4 4 3 3 3 3 2 2 2 3 2 2 3 4
Wind_Direction
165 183 190 201 198 194 198 201 199 210 172 190 201 216 228 221 216 210 114 142 175 212 218 223 233 243 243 242 236 236 189 206 220 222 216 210 214 217 217 214 215 218 226 207 203 200 202 201 200 199 197 195 196 199 198 197 199 200 200 197 200 195 205 207 199 197 193 193 195 201 204 204 203 204 206 215 212 211 209 206 204 200 202 210 203 199
194 197 214 207 193 190 197 197 200 218 200 206 211 217 224 223 235 190 166 150 172 225 231 223 239 244 246 244 246 239 226 213 221 223 223 219 217 215 216 220 220 225 217 197 198 204 200 200 198 197 198 196 197 200 196 199 199 200 201 201 199 197 200 209 209 202 201 201 199 197 203 204 204 201 204 212 213 208 212 211 211 207 204 205 204 199
204 216 205 197 189 187 196 200 206 217 200 213 218 210 227 220 211 94 143 158 157 216 254 257 255 255 249 249 243 238 240 237 228 231 230 225 223 221 217 217 220 218 208 197 210 205 203 198 196 196 200 203 205 198 200 200 199 201 202 203 199 201 199 204 209 207 206 205 209 207 205 202 207 208 205 208 205 200 205 209 211 212 211 206 206 199
194 226 210 193 193 189 192 199 205 206 212 211 208 214 213 214 216 213 171 170 174 215 279 281 283 278 276 265 258 249 239 239 238 233 234 227 227 224 219 212 212 216 211 205 207 207 203 197 196 199 202 202 201 204 204 202 202 201 203 202 201 203 203 200 203 209 210 208 209 213 216 209 211 205 204 201 199 202 205 211 212 213 212 211 207 208
186 166 188 191 192 197 193 195 199 197 206 214 215 213 219 213 220 261 111 157 153 236 274 280 277 268 260 261 251 237 236 238 232 230 228 226 226 229 228 227 222 223 218 213 213 207 201 197 199 201 201 196 200 204 204 203 200 201 201 201 201 203 203 202 195 197 207 203 203 207 215 219 216 225 217 208 207 203 206 208 208 210 210 214 215 212
199 168 175 187 184 191 192 191 203 199 212 208 215 217 214 210 230 148 130 180 215 232 189 219 276 259 244 241 244 241 228 224 222 223 221 221 221 216 221 223 222 225 229 222 215 205 199 197 199 201 199 198 202 203 205 199 201 203 204 202 202 202 204 204 201 195 197 207 203 196 199 206 214 217 216 217 213 203 203 208 210 211 209 213 218 212
191 159 178 181 191 192 196 200 194 197 211 206 204 205 215 231 228 215 181 164 255 259 97 227 244 277 251 260 239 241 239 235 219 220 225 225 223 216 214 216 214 216 221 224 228 215 200 198 195 196 199 202 202 205 197 196 202 205 206 203 201 202 203 201 201 192 188 204 210 209 208 209 212 219 222 219 219 218 214 211 208 213 212 214 216 216
154 178 182 185 183 184 193 201 196 200 205 218 132 168 198 211 202 213 221 242 268 319 149 208 246 278 273 249 260 251 242 243 240 228 226 231 227 222 216 211 212 213 214 207 212 212 208 202 192 197 202 201 207 200 188 199 203 204 204 200 200 201 203 202 199 196 194 202 207 210 214 216 218 218 222 216 220 221 224 222 216 215 213 210 213 212
177 177 180 180 188 193 203 202 187 195 208 169 128 165 187 207 226 224 220 250 272 3 278 218 195 267 253 254 236 241 253 245 238 234 232 230 232 230 225 217 208 209 210 208 205 206 201 204 203 204 201 205 205 196 197 199 199 200 201 201 201 203 202 203 198 197 197 199 202 204 209 216 221 223 222 220 219 215 218 227 223 219 217 213 212 212
200 180 183 189 191 200 198 198 190 180 198 50 159 108 116 122 124 182 223 244 257 258 256 237 190 251 271 241 240 213 227 238 236 239 238 232 221 219 224 223 214 208 207 213 214 211 199 199 204 204 200 195 198 197 199 198 195 196 194 198 201 205 204 200 200 200 203 199 198 204 208 213 217 214 220 218 220 222 215 220 223 221 219 219 209 211
114 14 204 190 198 194 189 179 183 179 166 130 112 107 113 119 133 108 139 19 310 258 253 228 231 226 289 233 216 210 222 224 241 246 241 232 224 221 221 221 214 208 204 192 206 211 201 186 185 181 195 201 191 188 193 195 195 194 197 200 203 207 207 205 205 203 205 207 204 207 209 211 212 210 207 208 218 216 210 216 221 222 222 215 211 207
120 151 182 140 339 174 113 89 34 78 133 149 142 136 124 107 126 148 141 172 228 256 324 222 226 196 242 176 198 223 240 211 236 249 244 231 224 217 215 217 219 214 209 199 192 196 185 164 166 173 196 200 196 179 190 195 196 201 202 203 208 211 210 209 208 206 207 208 210 211 214 219 215 210 206 209 213 212 215 213 215 214 218 216 207 206
152 185 89 96 311 161 143 117 92 130 167 176 165 165 185 181 152 204 163 200 215 243 81 28 154 220 237 246 273 251 245 221 232 249 252 245 238 228 218 217 220 219 216 205 163 156 161 171 174 188 202 194 196 197 194 196 197 203 206 206 210 215 211 211 208 210 211 210 213 215 216 220 218 218 215 215 215 211 215 213 212 208 211 210 208 206
172 48 78 134 162 231 164 178 142 177 187 189 188 178 185 183 175 206 192 230 273 208 125 149 315 266 277 288 242 240 249 245 235 231 243 247 253 254 272 150 96 35 46 48 73 103 144 167 185 196 197 197 197 199 198 196 194 198 204 209 212 219 214 211 212 212 212 215 216 217 218 221 219 221 223 224 222 215 219 222 212 207 208 207 212 211
136 181 215 160 201 194 199 194 177 165 177 193 196 199 199 170 167 195 195 202 218 249 120 161 130 241 212 249 352 274 266 269 263 277 270 260 256 262 40 269 336 330 7 98 153 191 200 196 187 185 186 189 193 196 194 195 199 197 207 211 215 221 216 213 212 212 214 214 215 215 220 225 227 228 220 225 228 225 220 223 220 211 211 213 213 219
178 137 146 187 358 176 187 197 154 116 123 175 176 164 198 210 198 215 212 226 216 155 183 191 226 247 232 354 299 261 258 253 248 247 241 252 246 210 203 220 228 233 223 187 194 203 204 185 176 181 191 197 199 195 191 198 199 200 209 212 218 220 219 216 214 215 215 216 214 214 215 221 224 225 225 226 227 231 231 226 223 218 222 220 218 218
171 193 125 131 308 190 173 149 160 151 190 171 167 205 184 356 214 210 72 144 49 315 258 189 255 261 274 272 258 253 252 246 232 231 236 241 240 222 216 198 185 200 207 190 192 195 184 169 184 194 195 196 193 196 203 202 201 205 206 211 216 220 220 218 214 216 216 218 216 215 214 215 217 223 222 224 232 233 234 231 223 222 221 219 217 217
175 138 358 158 142 328 38 309 178 174 86 144 202 184 113 32 5 214 215 133 227 248 254 187 228 255 233 283 209 221 225 233 221 226 234 241 235 227 212 178 172 195 207 205 200 177 160 175 182 183 190 202 199 193 191 194 192 203 208 209 210 212 213 214 214 213 213 214 217 217 215 216 215 217 219 221 229 231 230 230 228 223 219 215 211 211
122 97 123 323 148 61 335 120 94 11 326 200 168 131 158 172 206 193 197 223 209 220 247 237 238 244 237 248 123 172 220 229 230 230 229 230 227 230 219 200 194 193 178 194 204 175 163 168 176 180 190 181 169 145 133 150 167 192 211 219 220 220 219 219 216 218 217 216 214 216 216 215 215 218 220 219 220 224 226 224 222 221 214 198 197 203
185 121 124 342 151 179 174 172 176 167 331 354 137 178 209 257 215 183 200 266 223 248 237 250 191 255 214 240 240 250 217 222 227 229 223 218 235 231 223 218 191 161 177 178 160 135 122 118 144 151 152 158 143 139 141 174 199 211 209 213 225 237 239 232 227 222 223 219 219 217 219 221 222 222 223 224 223 222 225 223 218 218 203 194 188 197
200 106 151 151 45 155 185 197 185 172 174 172 185 186 185 211 5 252 213 215 221 235 241 273 263 243 252 268 231 230 238 221 216 225 217 203 207 210 229 169 124 126 132 126 117 112 111 128 162 151 143 140 145 133 105 203 203 210 197 210 216 220 221 226 228 230 232 231 226 222 220 220 222 226 225 227 226 227 227 227 222 216 191 187 196 191
174 188 134 138 168 197 200 160 232 195 178 181 189 188 180 176 174 179 218 205 214 229 242 230 248 247 136 212 161 254 298 332 20 2 136 101 126 91 346 62 78 117 115 110 116 117 133 143 156 145 139 135 162 150 163 150 181 205 212 219 212 216 221 217 218 219 226 227 232 228 225 226 227 228 228 227 227 227 227 227 216 207 204 207 198 194
243 85 129 166 177 180 120 353 173 286 319 212 189 198 185 189 199 204 209 195 171 219 26 319 328 270 85 37 202 103 46 33 35 13 39 72 77 63 58 63 92 110 119 123 122 109 119 148 117 76 67 127 144 130 134 156 201 210 220 230 228 230 224 214 218 216 218 223 224 225 227 229 231 230 229 228 226 225 222 223 215 197 201 203 200 200
345 114 108 105 93 66 74 171 215 305 219 211 235 226 190 198 197 205 212 152 188 174 214 233 244 236 96 1 351 338 36 350 358 8 349 13 352 41 49 55 55 85 100 97 89 132 168 149 139 181 186 181 180 182 185 187 189 201 215 230 237 233 235 220 224 224 223 225 226 222 222 226 232 236 230 229 225 222 215 209 206 190 199 194 179 188
149 239 122 130 117 153 128 103 213 217 209 217 204 203 208 201 198 197 80 94 218 205 210 203 235 254 154 145 169 235 180 188 219 194 211 240 198 215 117 109 114 64 43 37 59 66 64 228 224 207 196 188 172 174 176 181 195 203 217 224 231 250 259 265 273 255 238 241 233 225 226 231 236 234 225 219 214 215 205 208 203 195 192 183 189 188
24 174 160 159 160 165 176 187 188 190 205 205 208 191 203 200 174 146 200 187 225 194 182 211 241 242 115 183 186 157 160 170 193 190 199 232 251 174 94 104 84 66 42 25 345 308 286 280 279 224 199 195 187 182 178 184 197 212 220 225 227 238 241 252 277 270 263 251 246 238 232 236 233 227 224 220 216 211 205 197 198 195 201 186 190 185
151 202 218 201 180 187 177 73 96 61 83 185 192 196 188 202 184 185 190 216 222 208 211 219 232 245 193 185 154 162 144 154 137 181 207 213 223 229 231 198 81 56 342 306 304 323 354 250 245 238 225 212 190 181 174 181 195 211 217 223 221 224 226 221 225 237 239 238 234 238 236 235 239 222 219 214 211 199 191 195 189 184 195 190 184 177
98 218 230 226 216 156 103 138 140 161 172 184 178 189 175 182 190 191 199 215 212 209 237 234 224 228 214 185 199 171 169 160 115 103 126 132 143 163 166 136 137 194 218 196 219 229 229 224 221 214 223 219 214 184 181 187 195 201 207 215 215 211 209 208 219 224 231 232 233 238 238 237 227 216 207 182 158 164 171 159 164 172 150 154 169 173
162 199 206 224 232 212 332 150 153 150 167 171 169 176 175 177 191 200 217 230 185 208 223 236 217 228 229 212 206 214 191 210 100 75 29 358 53 118 141 184 175 193 197 202 223 219 206 206 204 198 196 207 202 210 201 190 192 207 216 221 211 196 207 190 210 225 226 227 230 232 234 217 190 192 153 156 151 162 159 146 133 117 126 131 128 125
153 232 188 208 227 225 173 176 158 160 163 171 176 181 180 184 198 207 222 223 208 226 233 243 140 217 230 217 226 226 237 99 107 122 319 295 282 220 186 204 188 191 199 212 217 208 195 197 198 199 197 202 206 209 200 194 190 189 202 207 208 204 194 177 197 211 217 221 225 222 199 178 158 165 170 153 157 159 144 139 136 133 129 128 129 127
168 212 176 192 221 230 224 275 177 159 163 178 183 178 180 181 198 210 221 225 214 234 241 243 246 261 246 222 221 209 134 142 149 224 235 217 198 215 211 209 205 194 202 223 221 189 181 194 197 197 202 215 205 211 195 195 186 170 199 209 207 203 182 192 195 206 209 219 191 158 147 156 160 150 174 158 139 135 141 140 141 133 127 128 136 139
178 192 153 166 205 221 204 190 168 161 169 173 175 176 179 187 201 210 217 213 199 221 234 240 250 251 244 180 229 204 167 207 241 241 235 238 176 188 191 213 216 201 201 212 223 209 203 202 201 197 203 199 203 200 192 199 196 184 200 199 203 191 167 190 199 203 205 191 145 167 166 160 148 149 137 128 144 141 129 124 127 132 133 132 134 137
187 170 164 176 198 220 171 172 137 118 90 185 200 191 195 198 203 211 229 222 212 216 224 223 233 235 117 166 204 198 202 207 220 233 244 250 217 181 189 202 210 210 207 205 214 218 212 208 207 202 184 179 196 197 202 190 193 204 187 183 193 161 161 189 196 201 197 160 166 173 157 150 158 150 150 148 133 126 121 127 121 128 143 146 135 128
181 189 185 177 201 168 133 142 147 151 203 214 210 204 191 196 200 208 214 215 220 218 229 226 238 237 216 214 200 201 204 207 214 218 223 231 246 242 214 193 201 207 213 218 221 221 210 203 203 202 200 206 205 187 152 161 184 165 150 155 142 156 176 189 199 201 173 170 179 179 173 162 159 160 149 128 127 131 133 131 133 120 106 114 117 115
185 188 204 165 210 173 145 127 170 209 219 233 143 152 200 202 199 213 224 217 219 221 230 236 240 239 231 205 198 209 218 222 216 225 223 227 239 250 264 264 239 235 227 227 224 218 206 197 194 199 217 219 163 120 131 152 163 130 131 150 161 178 172 187 178 186 175 182 182 172 169 163 159 147 136 132 129 131 133 128 114 111 120 141 143 139
182 185 173 190 145 61 167 171 196 227 219 46 154 180 175 198 211 215 234 227 217 213 217 228 233 234 228 219 206 207 219 227 231 229 228 229 228 236 247 248 245 236 233 227 223 217 206 196 200 209 215 143 137 153 171 167 154 156 163 167 177 175 181 180 187 192 183 184 175 173 168 162 148 130 132 133 129 136 133 128 131 133 133 126 115 100
193 188 194 175 173 176 182 178 209 47 101 217 216 185 177 196 195 196 221 233 223 216 215 225 228 224 223 220 217 189 122 67 268 248 222 221 220 227 232 238 237 235 235 240 227 226 217 206 203 198 168 152 155 164 172 152 147 152 150 167 179 175 182 183 193 190 181 184 169 161 156 154 150 142 144 149 141 140 136 132 128 127 129 117 114 121
198 197 184 173 215 175 167 183 232 257 257 219 215 200 175 10 185 195 220 259 197 218 221 226 231 225 225 217 188 130 121 196 245 251 223 208 214 222 229 235 240 241 242 210 202 203 191 182 168 168 167 153 160 170 151 146 148 153 159 173 174 179 189 190 200 181 177 182 167 162 160 157 153 152 149 155 158 149 133 119 117 131 147 147 142 135
277 210 213 199 160 155 188 197 199 210 230 230 189 171 179 182 125 116 183 258 224 211 210 219 227 218 210 199 157 143 155 217 236 247 239 198 207 215 226 234 240 235 210 194 187 185 184 186 178 162 147 146 164 167 155 146 150 157 171 172 168 186 193 200 192 179 179 172 156 155 154 154 151 156 156 157 158 152 147 148 146 141 136 138 130 123
191 202 161 200 160 202 178 197 220 191 244 217 144 173 157 133 122 112 206 258 239 195 211 210 215 209 208 183 172 183 192 222 235 235 235 191 205 211 220 234 233 217 211 197 192 187 178 154 132 148 173 182 180 147 150 146 146 158 163 167 163 192 201 198 182 155 147 142 147 150 152 157 158 161 162 159 149 149 149 139 136 151 150 129 123 131
192 189 202 193 188 187 194 256 286 281 250 134 154 142 141 132 143 164 200 247 107 169 201 202 210 203 193 172 172 196 208 216 229 239 84 166 199 215 222 230 231 202 205 198 201 168 166 179 186 190 190 176 139 136 146 147 148 165 176 166 183 203 180 161 135 136 140 136 140 146 154 157 167 165 166 158 157 154 145 152 149 148 146 141 129 130
185 179 178 195 192 187 187 202 231 257 252 118 149 138 141 144 167 196 222 154 140 169 196 191 201 194 187 187 189 204 214 218 234 169 122 161 191 209 207 164 121 96 50 33 177 174 179 173 180 156 130 128 138 145 150 153 155 165 164 171 195 186 156 141 140 135 132 132 136 133 138 145 131 128 140 136 135 136 137 118 124 147 151 149 140 138
172 171 188 189 160 105 175 203 237 264 195 152 152 149 167 182 211 206 53 11 37 185 168 193 199 194 188 202 205 213 224 222 229 195 142 170 179 189 172 171 175 187 184 169 165 183 163 172 175 173 147 126 136 136 145 148 153 159 156 180 181 164 158 145 136 135 133 132 128 130 132 123 128 123 120 130 133 137 132 125 121 125 132 127 129 138
161 180 171 193 180 170 179 195 206 225 96 142 159 187 198 238 2 323 135 130 311 226 168 156 201 185 190 203 208 221 229 235 240 178 158 170 186 134 161 163 163 152 156 166 162 161 166 178 165 139 109 121 124 127 131 153 152 147 145 156 151 151 149 142 137 134 131 134 138 139 143 142 138 136 139 145 139 131 131 135 136 136 153 137 143 154
180 188 159 184 185 190 191 210 225 140 151 168 175 164 183 206 210 253 341 138 163 247 178 180 192 195 189 200 211 216 226 230 234 213 198 205 195 180 177 184 184 183 174 167 150 151 168 176 154 133 117 111 118 116 123 141 141 133 144 129 117 143 150 143 139 141 141 140 140 142 131 133 134 138 135 143 148 146 145 142 147 154 152 152 163 155
178 202 185 192 195 205 230 224 359 337 255 178 190 187 187 195 187 150 191 207 214 185 180 182 206 183 193 198 206 220 222 228 228 222 217 219 208 197 171 161 166 142 132 125 120 147 145 111 121 134 133 116 112 116 121 130 141 146 147 114 129 137 140 139 139 137 135 130 133 132 137 130 119 125 129 141 152 151 154 160 166 165 157 166 173 161
224 187 165 207 161 175 234 228 236 231 190 227 203 243 321 225 203 185 225 243 231 185 195 222 196 192 191 195 202 209 216 220 221 220 215 214 209 193 181 175 154 158 163 168 154 147 139 141 139 145 141 128 128 115 118 103 100 102 106 129 126 128 134 137 135 130 135 140 132 129 143 145 144 139 136 152 154 158 154 154 170 172 165 173 178 172
226 190 203 206 185 194 224 222 224 224 189 202 211 216 217 232 228 215 230 289 329 336 233 224 96 191 179 198 208 206 218 217 215 219 212 208 204 181 174 173 164 153 147 120 133 152 134 139 139 132 138 125 136 136 132 114 95 113 122 128 132 138 136 138 144 148 148 143 145 146 154 153 140 148 157 169 170 169 165 168 182 189 183 185 186 180
152 158 211 184 206 213 238 255 192 183 200 208 210 213 212 216 216 206 245 260 259 254 221 35 27 49 178 213 208 213 219 226 210 212 206 207 191 178 183 181 174 159 147 146 148 160 151 143 130 135 133 133 143 145 138 103 103 120 138 133 145 143 143 140 134 128 133 138 140 142 157 154 157 172 157 160 172 180 178 178 183 188 182 139 200 212
124 189 201 198 217 232 227 225 200 196 221 216 203 194 195 2 308 223 230 231 220 206 189 196 215 329 290 251 206 211 216 222 219 198 206 199 196 197 180 162 157 152 136 114 126 142 119 118 128 133 131 137 148 146 131 108 106 99 124 126 143 150 138 137 126 128 139 150 148 138 157 153 153 161 150 154 166 171 120 43 52 33 93 173 123 105
193 185 190 198 196 220 222 224 202 220 263 81 162 186 196 203 204 213 225 230 220 210 196 189 187 201 224 227 223 208 219 222 217 197 205 208 206 186 165 160 156 156 144 137 134 136 123 118 124 125 130 141 145 139 101 95 84 82 87 81 76 129 134 136 138 135 140 154 159 158 159 152 151 161 163 154 160 160 175 171 148 151 121 70 51 40